Find Starlink 1309

NORAD ID: 45414 Int'l Des: 2020-019 Owner: SPXS Country: US Constellation: starlink operational
LEOCIRCULAR

Live-Position

3D-Globus wird geladen...

Über Starlink 1309

Beschreibung wird geladen...

Nächste Überflüge

Passes for default location (London). Set your location on the main map for personalized predictions.

Höhenverlauf

Loading altitude history...

Zweizeiliger Elementsatz

1 45414U 20019BG 26103.00662370 .00082305 00000-0 92454-3 0 9991
2 45414 53.0648 316.9595 0005965 174.7622 185.3455 15.61918259335388
Epoch: 13. Apr. 2026 • Age: 46 hours

Aktueller Status

Höhe 391.6 km
Geschwindigkeit 7.67 km/s
Subsatellitenpunkt -24.37°S, 113.33°E
Startdatum 18. März 2020
Alter 6 years
Typ internet

Technische Details

Klassifizierung Payload
Masse 260.00 kg
Trockenmasse 248.00 kg
Gesamtmasse 260.00 kg
Länge 0.20 m
Durchmesser 2.80 m
Spannweite 9.00 m
Form Box + pan
Hersteller SPXS
Bus-Typ Starlink
Phasenstatus In Orbit
Besitzer/Staat SPXS/US

Most Searched